Weather History for Sheridan, WY

Change the Weather History Date:

Sunday, August 18, 2013

  Actual Average Record
Temperature  
Mean Temperature 72 °F 69 °F  
Max Temperature 88 °F 86 °F 100 °F (1988)
Min Temperature 55 °F 52 °F 40 °F (1987)
Degree Days  
Heating Degree Days 0 1  
Month to date heating degree days 0 12  
Since 1 June heating degree days 121 187  
Since 1 July heating degree days 1 38  
Cooling Degree Days 7 5  
Month to date cooling degree days 98 111  
Year to date cooling degree days 376 343  
Since 1 June cooling degree days 368 339  
Growing Degree Days 22 (Base 50)    
Moisture  
Dew Point 49 °F    
Average Humidity 52    
Maximum Humidity 77    
Minimum Humidity 27    
Precipitation  
Precipitation 0.00 in 0.02 in 1.03 in (1968)
Month to date precipitation 0.04 0.41  
Year to date precipitation 9.98 9.74  
Sea Level Pressure  
Sea Level Pressure 29.92 in    
Wind  
Wind Speed 5 mph (WNW)    
Max Wind Speed 26 mph    
Max Gust Speed 30 mph    
Visibility 10 miles    
Events      
T = Trace of Precipitation, MM = Missing Value Source: NWS Daily Summary

Daily Weather History Graph

Daily Weather History Graph

Search for Another Location

Airport:

Trip Planner

Search our weather history database for the weather conditions in past years. The results will help you decide how hot, cold, wet, or windy it might be!

Date:

Astronomy

Aug. 18, 2013 Rise Set
Actual Time 6:14 AM MDT 8:08 PM MDT
Civil Twilight 5:42 AM MDT 8:39 PM MDT
Nautical Twilight 5:04 AM MDT 9:18 PM MDT
Astronomical Twilight 4:21 AM MDT 9:59 PM MDT
Moon 6:19 PM MDT (8/18) 3:23 AM MDT (8/18)
Length of Visible Light 14h 57m
Length of Day
13h 54m
Waxing Gibbous, 92% of the Moon is Illuminated
Aug 18
Waxing Gibbous
Aug 20
Full
Aug 28
Last Quarter
Sep 5
New
Sep 12
First Quarter

Hourly Weather History & Observations

Time (MDT) Temp. Dew Point Humidity Pressure Visibility Wind Dir Wind Speed Gust Speed Precip Events Conditions
12:53 AM 64.9 °F 48.0 °F 54% 29.90 in 10.0 mi Calm Calm - N/A   Clear
1:53 AM 63.0 °F 48.0 °F 58% 29.89 in 10.0 mi Calm Calm - N/A   Clear
2:53 AM 61.0 °F 48.0 °F 62% 29.87 in 10.0 mi WSW 6.9 mph - N/A   Clear
3:53 AM 60.1 °F 48.9 °F 67% 29.87 in 10.0 mi Calm Calm - N/A   Clear
4:53 AM 62.1 °F 48.9 °F 62% 29.85 in 10.0 mi Calm Calm - N/A   Clear
5:53 AM 57.9 °F 46.9 °F 67% 29.86 in 10.0 mi NW 3.5 mph - N/A   Clear
6:53 AM 55.0 °F 48.0 °F 77% 29.89 in 10.0 mi Calm Calm - N/A   Clear
7:53 AM 64.0 °F 48.9 °F 58% 29.90 in 10.0 mi Calm Calm - N/A   Clear
8:53 AM 72.0 °F 50.0 °F 46% 29.92 in 10.0 mi NW 5.8 mph - N/A   Clear
9:53 AM 80.1 °F 48.0 °F 32% 29.95 in 10.0 mi WNW 21.9 mph - N/A   Clear
10:53 AM 73.0 °F 46.9 °F 39% 29.96 in 10.0 mi NW 16.1 mph - N/A   Clear
11:53 AM 75.0 °F 48.9 °F 40% 29.99 in 10.0 mi NNW 16.1 mph 23.0 mph N/A   Clear
12:53 PM 81.0 °F 50.0 °F 34% 29.98 in 10.0 mi NNW 5.8 mph - N/A   Clear
1:53 PM 84.0 °F 50.0 °F 31% 29.96 in 10.0 mi NW 13.8 mph 19.6 mph N/A   Clear
2:53 PM 86.0 °F 48.9 °F 28% 29.95 in 10.0 mi NW 10.4 mph 20.7 mph N/A   Clear
3:53 PM 86.0 °F 51.1 °F 30% 29.93 in 10.0 mi South 3.5 mph - N/A   Clear
4:53 PM 86.0 °F 51.1 °F 30% 29.91 in 10.0 mi NNW 4.6 mph - N/A   Clear
5:53 PM 84.9 °F 48.9 °F 29% 29.91 in 10.0 mi Calm Calm - N/A   Clear
6:53 PM 84.0 °F 50.0 °F 31% 29.92 in 10.0 mi Calm Calm - N/A   Clear
7:53 PM 72.0 °F 57.0 °F 59% 29.93 in 10.0 mi Calm Calm - N/A   Clear
8:53 PM 68.0 °F 52.0 °F 56% 29.94 in 10.0 mi SSW 4.6 mph - N/A   Clear
9:53 PM 64.0 °F 50.0 °F 60% 29.94 in 10.0 mi SSW 4.6 mph - N/A   Clear
10:53 PM 61.0 °F 50.0 °F 67% 29.95 in 10.0 mi South 3.5 mph - N/A   Clear
11:53 PM 61.0 °F 50.0 °F 67% 29.94 in 10.0 mi WSW 3.5 mph - N/A   Clear